| time (UTC) | temp C | wind direction | speed KPH | gust KPH | rain 1hr cm | rain 24hr cm | rain mn cm | humidity % | barometer mb |
| 20260902221703 | 17 | 253 | 0.0 | 1.6 | 0.00 | 0.00 | 0.00 | 74 | 1023.2 |
| 20260902220202 | 17 | 253 | 0.0 | 0.0 | 0.00 | 0.00 | 0.00 | 74 | 1023.1 |
| 20260902214706 | 16 | 253 | 0.0 | 0.0 | 0.00 | 0.00 | 0.00 | 77 | 1023.0 |
| 20260902213204 | 16 | 253 | 0.0 | 0.0 | 0.00 | 0.00 | 0.00 | 79 | 1022.8 |
| 20260902211702 | 16 | 253 | 0.0 | 0.0 | 0.00 | 0.00 | 0.00 | 79 | 1022.7 |
| 20260902210201 | 16 | 253 | 0.0 | 0.0 | 0.00 | 0.00 | 0.00 | 77 | 1022.6 |
| 20260902204700 | 17 | 253 | 0.0 | 0.0 | 0.00 | 0.00 | 0.00 | 74 | 1022.6 |
| 20260902203203 | 17 | 253 | 0.0 | 1.6 | 0.00 | 0.00 | 0.00 | 72 | 1022.6 |
| 20260902200159 | 18 | 253 | 0.0 | 0.0 | 0.00 | 0.00 | 0.00 | 69 | 1022.6 |
| 20260902194658 | 18 | 253 | 0.0 | 0.0 | 0.00 | 0.00 | 0.00 | 69 | 1022.4 |
| 20260902193159 | 18 | 253 | 0.0 | 0.0 | 0.00 | 0.00 | 0.00 | 66 | 1022.3 |
| 20260902191657 | 20 | 253 | 0.0 | 0.0 | 0.00 | 0.00 | 0.00 | 62 | 1022.2 |
| 20260902190155 | 20 | 253 | 0.0 | 1.6 | 0.00 | 0.00 | 0.00 | 61 | 1022.1 |
| 20260902181655 | 21 | 254 | 0.0 | 4.8 | 0.00 | 0.00 | 0.00 | 58 | 1022.0 |
| 20260902180200 | 21 | 284 | 0.0 | 0.0 | 0.00 | 0.00 | 0.00 | 60 | 1021.6 |
| 20260902174655 | 21 | 284 | 0.0 | 1.6 | 0.00 | 0.00 | 0.00 | 59 | 1021.4 |
| 20260902173200 | 22 | 284 | 0.0 | 4.8 | 0.00 | 0.00 | 0.00 | 54 | 1021.4 |
| 20260902171657 | 23 | 289 | 0.0 | 3.2 | 0.00 | 0.00 | 0.00 | 53 | 1021.3 |
| 20260902164653 | 23 | 43 | 1.6 | 11.3 | 0.00 | 0.00 | 0.00 | 51 | 1021.3 |
| 20260902163154 | 23 | 207 | 1.6 | 11.3 | 0.00 | 0.00 | 0.00 | 51 | 1021.2 |
| 20260902161653 | 24 | 207 | 4.8 | 12.9 | 0.00 | 0.00 | 0.00 | 49 | 1021.2 |
| 20260902160153 | 25 | 282 | 1.6 | 6.4 | 0.00 | 0.00 | 0.00 | 48 | 1021.1 |
| 20260902154656 | 25 | 223 | 3.2 | 12.9 | 0.00 | 0.00 | 0.00 | 48 | 1021.0 |
| 20260902150152 | 25 | 326 | 4.8 | 14.5 | 0.00 | 0.00 | 0.00 | 44 | 1021.4 |
| 20260902143154 | 26 | 257 | 4.8 | 16.1 | 0.00 | 0.00 | 0.00 | 43 | 1021.4 |
| 20260902141652 | 26 | 167 | 1.6 | 11.3 | 0.00 | 0.00 | 0.00 | 43 | 1021.6 |
| 20260902140155 | 26 | 134 | 4.8 | 19.3 | 0.00 | 0.00 | 0.00 | 42 | 1021.6 |
| 20260902134759 | 26 | 165 | 6.4 | 19.3 | 0.00 | 0.00 | 0.00 | 44 | 1021.6 |
| 20260902130155 | 26 | 242 | 3.2 | 12.9 | 0.00 | 0.00 | 0.00 | 44 | 1022.0 |
| 20260902124656 | 26 | 153 | 3.2 | 14.5 | 0.00 | 0.00 | 0.00 | 49 | 1022.0 |
| 20260902123154 | 26 | 310 | 3.2 | 11.3 | 0.00 | 0.00 | 0.00 | 46 | 1022.1 |
| 20260902121656 | 26 | 282 | 3.2 | 8.0 | 0.00 | 0.00 | 0.00 | 47 | 1022.0 |
| 20260902120155 | 25 | 16 | 3.2 | 11.3 | 0.00 | 0.00 | 0.00 | 49 | 1022.1 |
| 20260902114656 | 24 | 240 | 3.2 | 9.7 | 0.00 | 0.00 | 0.00 | 52 | 1022.3 |
| 20260902113149 | 23 | 259 | 1.6 | 6.4 | 0.00 | 0.00 | 0.00 | 54 | 1022.6 |
| 20260902111648 | 24 | 299 | 1.6 | 6.4 | 0.00 | 0.00 | 0.00 | 55 | 1022.5 |
| 20260902110148 | 23 | 33 | 1.6 | 6.4 | 0.00 | 0.00 | 0.00 | 55 | 1022.6 |
| 20260902104649 | 23 | 221 | 1.6 | 6.4 | 0.00 | 0.00 | 0.00 | 56 | 1022.7 |
| 20260902101653 | 22 | 276 | 1.6 | 4.8 | 0.00 | 0.00 | 0.00 | 58 | 1022.8 |
| 20260902094649 | 23 | 331 | 0.0 | 3.2 | 0.00 | 0.00 | 0.00 | 57 | 1023.1 |
| 20260902093149 | 22 | 241 | 1.6 | 4.8 | 0.00 | 0.00 | 0.00 | 57 | 1023.2 |
| 20260902091649 | 23 | 250 | 1.6 | 4.8 | 0.00 | 0.00 | 0.00 | 59 | 1023.2 |
| 20260902090149 | 23 | 215 | 1.6 | 4.8 | 0.00 | 0.00 | 0.00 | 57 | 1023.1 |
| 20260902084650 | 21 | 49 | 1.6 | 4.8 | 0.00 | 0.00 | 0.00 | 62 | 1023.3 |
| 20260902083148 | 21 | 258 | 1.6 | 4.8 | 0.00 | 0.00 | 0.00 | 64 | 1023.3 |
| 20260902081650 | 20 | 63 | 0.0 | 0.0 | 0.00 | 0.00 | 0.00 | 67 | 1023.3 |
| 20260902080149 | 20 | 65 | 0.0 | 0.0 | 0.00 | 0.00 | 0.00 | 66 | 1023.3 |
| 20260902074650 | 20 | 195 | 0.0 | 0.0 | 0.00 | 0.00 | 0.00 | 70 | 1023.4 |
| 20260902073147 | 19 | 195 | 0.0 | 0.0 | 0.00 | 0.00 | 0.00 | 73 | 1023.3 |
| 20260902071645 | 18 | 195 | 1.6 | 4.8 | 0.00 | 0.00 | 0.00 | 77 | 1023.3 |
| 20260902070144 | 17 | 195 | 0.0 | 3.2 | 0.00 | 0.00 | 0.00 | 82 | 1023.3 |
| 20260902064645 | 15 | 195 | 0.0 | 0.0 | 0.00 | 0.00 | 0.00 | 88 | 1023.2 |
| 20260902063147 | 13 | 195 | 0.0 | 0.0 | 0.00 | 0.00 | 0.00 | 90 | 1023.2 |
| 20260902061649 | 13 | 194 | 0.0 | 0.0 | 0.00 | 0.00 | 0.00 | 92 | 1023.2 |
| 20260902060147 | 12 | 194 | 0.0 | 0.0 | 0.00 | 0.00 | 0.00 | 94 | 1023.1 |
| 20260902054646 | 11 | 195 | 0.0 | 0.0 | 0.00 | 0.00 | 0.00 | 94 | 1023.0 |
| 20260902051641 | 11 | 194 | 0.0 | 0.0 | 0.00 | 0.00 | 0.00 | 95 | 1022.8 |
| 20260902050140 | 10 | 194 | 0.0 | 0.0 | 0.00 | 0.00 | 0.00 | 95 | 1022.9 |
| 20260902043140 | 10 | 194 | 0.0 | 0.0 | 0.00 | 0.00 | 0.00 | 95 | 1022.7 |
| 20260902033142 | 10 | 194 | 0.0 | 0.0 | 0.00 | 0.00 | 0.00 | 94 | 1022.6 |
| 20260902031638 | 11 | 194 | 0.0 | 0.0 | 0.00 | 0.00 | 0.00 | 93 | 1022.9 |
| 20260902030138 | 11 | 194 | 0.0 | 0.0 | 0.00 | 0.00 | 0.00 | 93 | 1022.6 |
| 20260902024638 | 11 | 194 | 0.0 | 0.0 | 0.00 | 0.00 | 0.00 | 94 | 1022.9 |
| 20260902023139 | 11 | 194 | 0.0 | 0.0 | 0.00 | 0.00 | 0.00 | 93 | 1023.1 |
| 20260902021639 | 11 | 194 | 0.0 | 0.0 | 0.00 | 0.00 | 0.00 | 93 | 1023.1 |
| 20260902020138 | 11 | 194 | 0.0 | 0.0 | 0.00 | 0.00 | 0.00 | 93 | 1023.2 |
| 20260902014640 | 11 | 194 | 0.0 | 0.0 | 0.00 | 0.00 | 0.00 | 93 | 1023.1 |
| 20260902013138 | 11 | 194 | 0.0 | 0.0 | 0.00 | 0.00 | 0.00 | 93 | 1023.1 |
| 20260902011639 | 11 | 194 | 0.0 | 0.0 | 0.00 | 0.00 | 0.00 | 91 | 1023.2 |
| 20260902010142 | 12 | 194 | 0.0 | 0.0 | 0.00 | 0.00 | 0.00 | 91 | 1023.1 |
| 20260902004640 | 12 | 194 | 0.0 | 0.0 | 0.00 | 0.00 | 0.00 | 91 | 1023.2 |
| 20260902003142 | 12 | 194 | 0.0 | 0.0 | 0.00 | 0.00 | 0.00 | 91 | 1023.3 |
| 20260902001640 | 12 | 194 | 0.0 | 1.6 | 0.00 | 0.00 | 0.00 | 92 | 1023.4 |
| 20260902000142 | 12 | 133 | 0.0 | 0.0 | 0.00 | 0.00 | 0.00 | 92 | 1023.3 |
| 20260901234640 | 12 | 133 | 0.0 | 0.0 | 0.00 | 0.00 | 0.00 | 92 | 1023.2 |
| 20260901233135 | 12 | 133 | 0.0 | 0.0 | 0.00 | 0.00 | 0.00 | 92 | 1023.3 |
| 20260901230136 | 13 | 133 | 0.0 | 0.0 | 0.00 | 0.00 | 0.00 | 91 | 1023.4 |
| 20260901224634 | 13 | 133 | 0.0 | 0.0 | 0.00 | 0.00 | 0.00 | 90 | 1023.5 |